EDT,Max TemperatureF,Mean TemperatureF,Min TemperatureF,Max Dew PointF,MeanDew PointF,Min DewpointF,Max Humidity, Mean Humidity, Min Humidity, Max Sea Level PressureIn, Mean Sea Level PressureIn, Min Sea Level PressureIn, Max VisibilityMiles, Mean VisibilityMiles, Min VisibilityMiles, Max Wind SpeedMPH, Mean Wind SpeedMPH, Max Gust SpeedMPH,PrecipitationIn, CloudCover, Events, WindDirDegrees
2013-8-1,71,66,60,64,62,61,100,93,73,30.15,30.09,30.05,10,6,0,15,9,22,0.12,6,Fog-Rain-Thunderstorm,265
2013-8-2,71,64,57,61,57,55,100,81,57,30.21,30.16,30.09,10,8,0,15,9,18,0.00,2,Fog,272
2013-8-3,71,66,60,61,58,52,100,82,60,30.20,30.16,30.13,10,10,5,15,10,21,0.00,4,Rain,274
2013-8-4,68,62,55,61,54,48,100,80,56,30.22,30.17,30.12,10,8,0,13,6,20,0.01,3,Fog,324
2013-8-5,66,58,51,61,54,48,100,82,72,30.26,30.21,30.17,10,10,7,12,4,,0.00,4,,191
2013-8-6,71,66,60,66,62,57,100,90,64,30.20,30.17,30.13,10,6,0,9,6,,0.00,6,Fog-Rain,185
2013-8-7,66,64,62,66,64,63,100,100,100,30.24,30.21,30.19,10,2,0,10,6,16,0.03,8,Fog-Rain,188
2013-8-8,71,66,62,70,66,63,100,99,88,30.23,30.20,30.18,10,4,0,13,8,18,0.56,8,Fog-Rain-Thunderstorm,198
2013-8-9,75,70,66,70,67,66,100,91,73,30.23,30.18,30.15,10,7,0,21,13,31,0.00,6,Fog,259
2013-8-10,73,68,64,70,65,59,100,91,73,30.29,30.25,30.20,10,6,0,14,10,20,0.27,5,Fog-Rain,275
2013-8-11,69,66,62,70,65,61,100,97,83,30.30,30.27,30.24,10,5,0,10,4,,0.25,7,Fog-Rain-Thunderstorm,269
2013-8-12,75,68,62,66,63,57,100,87,69,30.25,30.21,30.14,10,5,0,12,9,,0.00,5,Fog-Rain,266
2013-8-13,73,66,60,66,63,57,100,93,73,30.14,30.04,30.00,10,6,0,20,12,26,0.26,6,Rain-Thunderstorm,272
2013-8-14,62,55,48,59,48,45,100,79,55,30.25,30.13,30.03,10,9,1,16,9,25,0.00,1,,317
2013-8-15,62,55,48,50,47,43,88,76,59,30.29,30.26,30.23,10,10,0,9,5,,0.00,2,,114
2013-8-16,66,58,51,54,51,46,100,79,60,30.32,30.27,30.24,10,10,10,9,5,,0.00,1,,152
2013-8-17,62,56,51,57,54,50,100,94,77,30.36,30.33,30.31,10,7,0,14,6,20,0.12,6,Fog-Rain,97
2013-8-18,60,56,53,61,58,54,100,100,100,30.36,30.32,30.29,10,1,0,12,8,17,0.47,8,Fog-Rain,110
2013-8-19,68,39,10,66,50,10,100,98,88,30.33,30.28,30.25,10,4,0,15,7,17,0.08,6,Fog-Rain,257
2013-8-20,73,65,57,66,63,57,100,92,73,30.37,30.33,30.28,10,8,0,10,4,,0.01,4,Fog,217
2013-8-21,71,66,60,68,65,61,100,95,83,30.40,30.35,30.31,10,8,0,9,5,,0.00,5,Fog-Rain-Thunderstorm,208
2013-8-22,71,64,57,66,61,55,100,88,77,30.32,30.27,30.22,10,10,2,13,9,17,0.45,2,Rain-Thunderstorm,278
2013-8-23,71,63,55,64,61,54,100,94,73,30.29,30.21,30.17,10,8,0,14,9,20,0.00,6,Fog-Rain,323
2013-8-24,69,62,55,55,52,46,94,71,53,30.48,30.39,30.29,10,10,10,8,4,,0.00,1,,91
2013-8-25,69,61,53,57,54,52,94,77,56,30.54,30.49,30.45,10,9,7,8,4,,0.00,2,,157
2013-8-26,71,63,55,61,55,52,94,75,57,30.47,30.38,30.27,10,10,5,14,7,18,0.00,0,,274
2013-8-27,73,68,62,66,63,57,100,88,69,30.27,30.22,30.18,10,5,2,18,13,25,0.00,2,,288
2013-8-28,73,68,64,70,67,64,100,97,83,30.20,30.13,30.05,10,3,0,20,12,25,1.84,7,Fog-Rain-Thunderstorm,267
2013-8-29,75,70,64,68,66,64,100,92,73,30.23,30.15,30.06,10,5,0,15,8,20,0.00,6,Fog-Rain,62
2013-8-30,73,66,60,68,65,61,100,94,78,30.23,30.18,30.13,10,6,0,10,5,,0.00,5,Fog,184
2013-8-31,75,70,64,68,65,61,100,93,69,30.13,30.09,30.05,10,6,0,12,8,,0.06,5,Fog-Rain-Thunderstorm,252